Temperature
21 21 21 21 24 25 23 23 24 24 24 23 22 22 22 22 22 21 18 18 17 17 17 17 17 17 17 17 17 17 17 17 17 17 17 17 17 17 17 17 17 17 17 17 17 17 17 17 17
21 21 21 23 25 24 23 24 24 24 23 22 22 22 22 21 20 19 18 17 17 17 17 17 17 17 17 17 17 17 17 17 17 17 17 17 17 17 17 17 17 17 17 17 17 17 17 17 17
21 21 22 25 25 24 23 24 24 23 22 22 22 22 22 20 19 19 18 18 17 17 17 17 17 17 17 17 17 17 17 17 17 17 16 16 16 17 16 17 17 17 17 17 17 17 17 17 17
21 22 24 25 24 24 24 24 24 23 23 22 22 22 21 19 19 18 18 18 17 17 17 17 17 17 17 17 17 17 17 17 17 16 16 16 16 16 16 16 17 17 17 17 17 17 17 17 17
21 23 25 24 24 24 24 24 24 24 23 23 23 22 20 19 18 18 18 18 17 17 17 17 17 17 17 17 17 17 17 16 16 16 16 16 16 16 16 16 16 16 17 17 17 17 17 17 17
23 25 25 24 23 24 24 24 24 24 23 22 22 22 20 19 18 18 18 18 17 17 17 17 17 17 17 17 16 16 16 16 16 16 16 16 16 16 16 16 16 16 16 16 16 16 16 17 17
24 25 24 24 23 23 24 23 24 24 23 22 22 22 20 19 18 18 18 17 17 17 17 16 16 16 17 17 17 16 16 16 16 16 16 16 16 16 16 16 16 16 16 16 16 16 16 16 16
23 25 24 24 24 23 24 23 23 23 22 21 21 22 21 19 18 18 18 17 17 17 17 17 16 16 16 16 16 16 16 16 16 16 16 16 16 16 16 16 16 16 16 16 16 16 16 16 16
23 25 24 24 24 24 23 23 22 22 22 21 20 20 19 19 18 18 18 18 17 17 17 17 16 16 16 16 16 16 16 16 16 16 16 16 16 15 15 16 16 16 16 16 16 16 16 16 16
24 25 24 24 25 24 23 23 23 22 22 21 20 19 19 18 18 19 19 18 18 17 17 17 16 16 16 16 16 16 16 16 16 16 16 16 16 15 15 16 16 16 16 16 16 16 16 15 15
25 24 24 24 24 23 23 23 22 23 22 22 21 20 19 19 19 19 19 18 18 18 17 17 17 16 16 16 16 16 16 15 15 15 15 16 15 15 15 15 15 15 15 15 15 15 15 15 15
25 24 24 24 23 23 23 23 22 22 21 21 20 20 19 19 19 19 19 18 18 17 17 17 17 16 16 16 16 15 15 15 15 15 15 15 15 15 15 15 15 15 15 15 15 15 15 15 15
25 24 23 22 22 22 22 22 22 21 20 20 19 19 19 19 19 19 19 18 18 17 17 17 16 16 16 16 16 15 15 15 15 15 15 15 15 15 15 15 15 15 15 15 15 15 15 15 15
24 23 23 23 23 22 22 22 22 21 20 19 19 19 19 19 19 19 18 18 18 17 17 17 16 16 16 16 16 16 15 15 15 15 15 15 15 15 15 15 15 15 15 15 15 15 15 15 15
23 24 24 23 23 22 23 22 22 20 20 20 19 19 19 18 18 18 18 18 18 18 17 17 16 16 16 16 16 16 15 15 15 15 15 15 15 15 15 15 14 14 14 14 14 14 14 14 14
24 24 24 23 23 22 23 22 22 20 20 20 20 19 19 18 18 18 18 18 17 17 17 17 16 16 16 16 16 15 15 15 15 15 15 15 14 14 14 14 14 14 14 14 14 14 14 14 14
24 24 24 23 23 23 23 22 22 20 20 20 20 20 19 18 18 17 17 17 17 17 17 16 16 16 16 15 15 15 15 15 15 15 14 14 14 14 14 14 14 14 14 14 14 14 14 14 14
24 24 24 23 23 23 23 22 22 20 20 20 20 19 19 19 18 17 17 17 17 17 17 16 16 16 15 15 15 15 15 15 15 14 14 14 14 14 14 14 14 14 14 14 14 14 14 14 14
24 24 23 23 23 22 22 22 22 21 20 20 20 19 19 18 18 17 16 16 16 16 16 16 16 15 15 15 15 15 15 15 14 14 14 14 14 14 14 14 13 13 13 13 13 13 13 13 14
24 23 23 23 22 22 22 22 22 21 20 20 20 19 19 18 18 17 16 16 16 16 16 16 16 15 15 15 15 15 14 14 14 14 14 14 14 14 14 13 13 13 13 13 13 13 13 13 13
23 23 23 23 22 22 22 22 22 21 20 19 19 19 18 18 17 17 16 16 16 16 16 16 16 15 15 15 15 14 14 14 14 14 14 14 14 14 14 13 13 13 13 13 13 13 13 13 13
23 23 22 22 22 23 22 22 22 22 21 20 19 19 18 17 17 17 16 15 15 15 15 15 15 15 15 15 14 14 14 14 14 14 14 14 13 13 13 13 13 13 13 13 13 13 13 13 13
23 22 22 22 22 22 22 22 23 22 21 21 20 18 18 17 16 16 16 15 15 15 15 15 15 15 15 14 14 14 14 14 14 13 13 13 13 13 13 13 13 13 13 13 13 13 12 13 13
22 22 22 22 22 22 22 22 22 22 22 21 20 18 17 16 16 16 15 15 15 15 15 15 14 14 14 14 14 14 14 13 13 13 13 13 13 13 13 13 13 13 13 13 12 12 12 12 12
22 22 22 22 22 22 22 22 22 22 21 20 19 18 17 16 16 15 15 15 14 14 14 14 14 14 14 14 14 13 13 13 13 13 13 13 13 13 13 13 13 13 12 12 12 12 12 12 12
22 23 22 21 22 22 21 22 22 21 19 19 18 18 17 16 15 15 15 14 14 14 14 14 14 14 14 14 13 13 13 13 13 13 13 13 12 12 12 13 13 12 12 12 12 12 12 12 12
22 22 22 22 22 21 22 22 21 20 20 19 18 17 16 15 15 15 14 14 14 14 13 13 13 13 13 13 13 13 13 13 13 13 13 12 12 12 12 12 12 12 12 12 12 12 12 12 12
21 22 21 21 21 21 21 22 22 20 20 19 18 17 16 15 15 14 14 14 14 14 13 13 13 13 13 13 13 13 13 13 12 12 12 12 12 12 12 12 12 12 12 12 12 12 12 12 12
20 21 21 21 21 21 21 22 22 21 20 19 18 17 16 15 14 14 13 13 13 13 13 13 13 13 13 13 13 13 12 12 12 12 12 12 12 12 12 12 12 12 12 12 12 12 12 11 11
21 21 21 20 20 20 20 21 20 20 19 18 18 16 15 14 14 13 13 13 13 13 13 13 12 12 12 12 12 12 12 12 12 12 12 12 12 12 12 12 12 12 12 12 11 12 11 11 11
Wind_Speed
3 2 2 2 1 4 7 6 5 5 4 6 6 6 7 7 5 5 4 3 4 4 5 6 5 5 5 6 7 7 7 8 8 8 8 8 8 8 8 8 8 8 8 8 8 9 9 9 9
1 1 2 1 1 6 7 6 7 6 5 5 5 6 6 7 5 5 4 3 3 5 5 6 6 4 5 5 6 6 7 7 7 7 7 8 8 8 8 8 8 8 8 8 8 8 9 9 9
1 1 1 1 4 6 6 6 6 6 4 2 3 4 5 5 4 3 3 4 4 5 6 7 5 5 5 6 6 6 7 7 7 6 7 7 7 8 8 8 8 8 8 9 9 9 9 9 9
1 1 0 4 10 8 6 5 4 5 4 3 3 5 5 5 3 4 5 5 5 5 6 7 5 5 6 6 6 6 6 6 6 6 6 7 7 7 8 8 8 8 8 9 9 9 9 9 8
1 0 4 8 9 7 5 4 4 4 4 4 3 5 5 4 5 6 5 5 5 6 6 7 6 6 6 6 7 7 6 7 7 7 7 7 7 7 7 7 7 7 8 8 9 9 9 9 8
0 1 5 8 9 7 5 4 4 5 5 4 4 4 4 4 5 5 5 5 6 6 6 7 7 6 7 7 7 7 7 7 8 8 7 7 7 7 7 7 7 7 7 8 8 9 9 9 9
1 3 6 8 7 6 4 3 3 4 5 4 2 3 4 5 4 5 6 5 6 6 5 5 6 7 7 7 7 8 8 8 8 8 8 8 8 8 7 7 7 7 7 8 8 8 9 9 8
1 3 6 6 6 6 4 3 3 3 4 4 2 2 4 5 5 6 6 5 5 5 4 4 5 5 5 6 8 7 8 8 8 8 8 7 7 7 7 7 8 7 7 8 8 8 9 9 8
1 3 5 5 4 4 4 3 3 3 4 4 4 4 5 7 7 6 5 5 5 4 3 4 4 4 4 5 6 6 6 6 5 7 6 3 5 6 6 9 8 7 8 8 8 8 7 7 8
1 3 5 4 3 4 3 3 3 3 4 4 4 5 5 7 6 6 5 4 4 4 3 3 3 3 4 4 4 4 4 5 4 5 5 5 5 6 6 8 7 7 7 7 7 6 4 2 5
2 4 4 4 3 3 3 3 3 3 3 3 3 4 5 6 5 4 4 3 3 3 3 3 2 3 3 3 3 3 3 3 4 5 5 4 4 4 4 4 4 5 4 5 5 4 4 4 4
4 4 3 3 3 2 3 4 3 2 2 3 3 4 4 5 4 3 3 3 3 3 3 2 2 2 2 3 3 2 2 2 3 3 4 4 3 3 4 3 4 3 4 4 4 3 4 5 5
4 3 3 3 3 3 4 3 2 2 1 2 3 3 3 3 3 3 2 2 2 2 2 2 1 1 2 2 2 2 2 2 3 3 3 3 3 3 3 3 3 4 4 3 3 4 4 4 5
3 3 3 2 4 3 4 2 2 1 2 3 3 3 3 3 2 2 2 2 2 2 2 2 1 1 1 2 2 2 2 2 2 3 3 3 3 3 3 3 3 3 3 3 3 4 3 3 4
4 3 2 2 2 2 2 1 1 1 2 2 2 2 2 2 2 1 0 1 1 1 1 2 1 1 1 1 2 2 2 2 2 2 2 3 3 3 3 2 3 3 3 4 3 4 3 3 4
3 3 2 1 0 1 3 1 1 1 2 1 1 2 2 2 1 1 1 0 0 1 1 2 2 1 1 1 1 1 2 2 2 2 2 2 2 3 2 2 2 3 3 3 2 2 3 3 3
4 4 2 1 0 1 3 2 1 0 2 2 2 1 1 1 1 1 1 1 1 1 1 2 2 2 2 1 2 1 2 2 2 2 2 1 2 2 2 2 2 2 2 2 2 2 2 3 3
3 3 3 2 1 2 3 3 1 0 2 3 2 2 2 1 0 1 1 1 1 1 1 1 2 2 2 2 2 2 2 2 2 1 1 2 1 2 2 2 2 2 2 2 2 2 2 2 2
4 5 4 2 1 3 3 3 2 1 1 2 1 1 2 1 1 2 2 1 2 2 1 1 2 2 2 2 2 2 1 1 1 1 1 1 1 1 2 1 2 1 1 2 2 2 2 2 2
5 6 4 2 1 3 3 3 2 1 2 2 1 0 1 1 1 2 2 2 2 1 1 1 1 2 3 2 2 2 2 1 1 1 1 1 1 1 1 1 2 1 1 2 2 2 1 1 1
6 6 5 4 2 3 4 3 2 2 2 2 1 0 0 0 1 2 2 2 1 1 1 0 1 2 2 3 2 2 2 1 1 1 1 1 0 1 1 1 1 1 1 1 1 2 2 2 1
5 2 4 5 6 4 4 4 2 3 3 3 2 1 0 1 1 2 2 2 1 1 1 1 1 2 2 3 3 3 2 1 1 1 0 1 0 0 0 1 1 1 1 1 2 2 2 2 1
2 0 3 5 6 6 5 6 2 3 3 2 2 1 1 1 1 1 1 2 1 2 2 1 1 2 2 2 2 2 2 1 0 1 1 1 1 0 0 1 1 2 2 2 2 2 2 2 2
3 3 3 4 6 7 5 6 3 3 2 1 2 2 1 1 1 2 2 2 2 2 2 2 2 2 2 2 2 2 2 1 1 0 0 0 0 1 1 2 2 2 2 2 2 2 3 2 2
5 5 4 5 5 4 1 5 3 2 2 1 1 2 2 2 1 2 2 2 2 2 2 2 2 2 1 1 2 2 2 2 2 1 1 1 1 1 1 2 2 2 2 2 2 2 3 3 3
5 7 6 5 5 3 3 5 1 3 2 1 1 2 2 2 2 2 2 2 2 2 1 1 1 1 1 1 1 1 1 1 1 2 2 2 2 2 2 2 2 2 3 2 2 3 3 2 3
5 6 5 6 6 7 5 3 2 3 2 2 2 2 2 2 1 2 2 2 2 2 1 1 1 1 1 0 1 1 1 1 1 2 2 2 2 2 2 3 3 3 3 3 3 3 3 3 3
2 2 4 5 5 6 6 6 3 4 3 2 1 1 1 1 1 1 1 2 2 1 1 1 0 0 1 1 0 1 1 1 1 2 2 2 2 2 3 3 3 3 3 3 3 3 2 3 3
3 4 5 5 6 6 6 2 1 1 1 2 2 1 1 1 1 1 1 1 1 1 1 1 0 0 1 1 1 1 1 2 2 2 2 2 2 3 3 3 3 3 4 4 3 4 3 4 4
5 5 6 6 6 6 7 3 4 1 1 1 2 2 1 1 1 1 1 1 1 1 1 1 1 1 1 1 1 2 2 2 2 2 2 3 2 2 3 3 3 3 3 4 4 5 5 5 4
Wind_Direction
181 189 234 245 173 92 78 77 80 84 72 63 61 64 62 44 31 63 80 78 70 83 86 102 90 81 83 84 81 79 76 77 84 80 78 77 75 73 73 73 73 73 74 76 77 79 79 80 80
184 230 246 258 113 99 81 82 84 73 88 99 79 69 67 63 54 83 94 86 89 87 86 85 85 84 85 88 87 81 80 77 80 81 79 81 78 72 73 75 74 75 75 77 78 78 79 79 78
152 267 314 83 77 77 90 87 90 94 101 102 83 60 49 60 69 82 84 111 101 90 86 85 80 83 84 85 87 84 79 77 76 76 77 80 79 75 74 73 73 73 77 78 78 77 78 78 78
230 218 127 95 87 73 84 97 113 123 107 89 96 83 76 57 59 79 102 112 104 95 91 89 78 78 80 81 83 83 80 77 75 73 74 77 78 78 78 75 73 72 77 78 76 75 75 76 79
246 152 110 102 90 84 77 83 109 108 94 89 93 89 86 74 81 94 104 104 101 95 88 91 82 78 80 80 79 77 77 74 73 71 71 75 77 80 81 78 77 76 79 79 76 75 76 74 75
186 143 114 103 97 94 89 92 98 90 92 90 93 96 87 97 101 106 106 99 98 94 89 94 94 81 82 81 77 76 75 72 70 67 68 72 75 76 77 76 75 77 80 82 78 77 77 76 76
70 90 100 106 108 106 89 85 75 79 82 69 70 94 109 115 117 120 111 103 96 91 88 87 98 103 96 83 73 72 70 67 65 66 66 68 70 72 75 73 74 80 83 82 79 81 78 76 75
58 116 114 107 108 96 98 100 61 50 67 65 60 82 100 128 141 133 118 112 103 94 87 83 82 87 95 96 82 72 69 66 68 69 69 75 86 85 79 76 72 79 83 84 81 81 78 74 71
229 131 111 107 105 99 114 111 80 77 89 84 70 61 81 129 144 138 128 120 111 96 89 86 85 82 83 85 95 91 86 75 81 87 85 86 78 78 83 67 70 76 82 84 83 81 79 81 81
143 103 96 100 104 108 115 106 107 110 95 92 89 88 109 138 147 141 135 127 118 106 93 85 83 81 86 82 91 84 83 81 69 68 69 66 63 66 71 84 77 76 84 91 86 88 104 102 93
92 92 99 104 105 114 126 111 105 118 83 70 95 114 133 146 150 146 138 128 111 105 97 88 83 80 83 88 80 77 75 78 76 68 72 69 71 78 73 85 96 91 99 96 104 113 84 79 72
108 95 103 112 107 125 130 124 102 72 64 58 92 114 132 153 152 153 142 129 123 109 100 93 79 85 78 79 81 80 80 76 74 71 69 68 65 61 69 69 70 77 78 76 84 90 86 80 80
114 105 91 89 98 111 116 121 114 88 75 94 112 126 139 142 157 157 146 137 132 127 127 120 113 93 87 86 84 87 75 64 79 72 73 71 68 69 79 85 79 77 80 88 87 90 87 81 76
106 116 115 111 118 126 123 120 144 101 110 129 133 139 139 134 145 161 163 163 149 153 148 136 140 119 116 118 114 87 76 80 74 81 77 75 73 72 76 81 79 77 79 79 85 86 91 87 84
137 140 142 125 115 129 162 148 165 122 160 148 141 141 136 136 140 127 87 193 175 163 159 144 144 146 147 117 99 88 84 85 82 85 86 76 70 76 77 77 81 82 88 89 84 85 85 90 90
188 204 198 135 87 180 246 268 79 124 191 199 174 143 143 138 138 104 51 43 104 144 148 144 148 166 144 123 122 106 96 85 89 94 88 79 80 76 79 81 86 88 94 99 94 89 90 84 80
213 227 233 197 244 240 249 290 32 142 233 244 238 206 182 155 130 92 69 72 125 131 154 157 152 155 142 133 132 114 105 95 85 93 94 85 75 85 99 89 96 102 100 97 99 89 83 86 77
236 250 252 253 219 240 255 277 311 225 243 252 241 229 215 223 172 91 84 91 142 148 158 155 150 166 149 155 149 131 119 107 94 93 93 90 87 93 107 120 123 118 121 110 106 101 84 82 81
260 261 268 276 264 251 267 282 296 251 234 235 226 217 217 215 96 86 97 109 142 138 136 138 166 172 167 167 164 153 145 138 121 96 80 105 110 108 115 134 129 132 137 140 133 128 116 108 100
243 253 262 251 202 258 277 285 290 240 222 235 256 250 209 158 98 93 101 100 80 101 119 127 163 172 172 173 166 160 149 153 111 102 114 130 123 119 123 154 150 157 153 157 152 158 166 148 173
242 253 264 262 253 227 266 252 217 176 179 185 222 265 102 94 125 120 115 92 76 47 16 143 147 157 161 157 150 148 140 142 134 128 100 85 68 128 162 161 162 162 182 177 186 192 203 200 202
251 255 250 240 247 249 252 270 229 193 182 187 189 188 109 115 122 117 115 112 87 55 27 28 139 149 157 163 170 169 163 172 186 195 161 139 114 32 330 186 194 201 197 196 208 206 231 228 215
262 172 228 241 254 260 242 259 225 184 216 206 187 164 116 99 96 112 115 119 89 77 67 62 100 121 139 160 163 185 177 165 149 158 140 115 142 155 176 228 223 227 215 210 211 219 229 229 239
175 181 188 217 243 251 248 254 248 211 225 124 106 115 121 98 89 94 94 97 95 85 83 75 87 108 118 151 167 183 185 167 151 164 99 16 209 188 192 233 225 230 225 214 212 219 222 227 233
214 241 245 231 228 247 190 251 251 89 71 89 98 93 105 107 99 86 92 88 94 95 98 97 87 96 142 172 188 200 204 206 210 222 230 253 239 235 235 235 236 234 233 226 226 226 227 226 230
232 244 257 272 271 272 215 248 149 103 92 105 104 93 98 100 95 93 99 102 88 94 107 119 106 108 110 175 208 225 212 224 238 244 243 246 253 256 253 237 240 242 239 231 226 231 231 238 237
230 235 272 276 278 274 247 238 188 152 140 122 110 102 97 100 96 100 94 91 89 75 83 152 141 109 83 42 225 227 234 226 254 249 244 247 256 262 254 243 232 230 231 231 221 224 225 232 238
278 231 229 248 267 266 258 250 237 185 189 173 160 136 112 111 99 104 102 84 80 72 71 89 167 113 45 28 316 245 266 257 268 262 254 245 244 251 250 245 234 226 223 224 225 226 234 228 224
197 212 239 250 263 277 280 266 67 146 192 208 199 180 146 141 123 107 98 85 73 71 80 68 18 308 335 332 320 275 270 268 258 270 268 264 252 246 240 244 241 236 233 227 222 228 228 232 226
238 236 234 250 254 258 278 287 100 94 344 236 209 195 183 165 144 128 111 85 52 30 33 358 319 323 301 294 297 292 284 261 252 260 265 265 268 259 247 242 242 238 236 231 228 231 231 236 237
Height
1518 1517 1517 1519 1517 1518 1524 1524 1521 1523 1523 1526 1526 1525 1526 1527 1529 1536 1536 1534 1533 1533 1532 1531 1530 1530 1529 1529 1529 1528 1528 1528 1527 1527 1527 1526 1526 1526 1525 1525 1525 1525 1525 1525 1525 1525 1524 1524 1524
1518 1518 1520 1519 1516 1524 1529 1524 1524 1524 1527 1528 1528 1528 1528 1531 1533 1535 1535 1534 1534 1534 1533 1532 1531 1531 1531 1531 1530 1530 1529 1529 1529 1528 1528 1528 1527 1527 1527 1526 1526 1526 1526 1526 1526 1526 1526 1525 1525
1519 1519 1521 1517 1519 1524 1528 1525 1525 1527 1529 1529 1529 1530 1531 1534 1535 1536 1535 1535 1535 1535 1534 1533 1532 1532 1532 1532 1531 1531 1531 1530 1530 1529 1529 1529 1528 1528 1528 1528 1527 1527 1527 1527 1527 1527 1527 1527 1526
1520 1521 1521 1519 1525 1525 1524 1525 1526 1527 1529 1530 1530 1531 1534 1536 1537 1537 1536 1536 1536 1536 1535 1534 1534 1533 1533 1533 1533 1532 1532 1531 1531 1530 1530 1530 1529 1529 1529 1529 1528 1528 1528 1528 1528 1528 1528 1528 1528
1521 1521 1520 1523 1526 1526 1526 1526 1527 1527 1528 1530 1531 1532 1536 1538 1537 1537 1537 1537 1537 1537 1536 1536 1535 1535 1534 1534 1534 1533 1533 1533 1532 1532 1531 1531 1531 1530 1530 1530 1530 1530 1529 1529 1529 1529 1529 1529 1529
1523 1520 1522 1527 1528 1527 1527 1528 1529 1528 1530 1532 1532 1533 1537 1538 1538 1538 1538 1538 1538 1537 1537 1537 1536 1536 1535 1535 1535 1534 1534 1533 1533 1533 1532 1532 1532 1531 1531 1531 1531 1531 1531 1531 1531 1530 1530 1530 1530
1523 1520 1523 1526 1529 1529 1529 1530 1530 1530 1531 1533 1534 1534 1537 1539 1539 1539 1539 1539 1539 1539 1538 1538 1538 1537 1537 1536 1536 1536 1535 1535 1534 1534 1533 1533 1533 1532 1532 1532 1532 1532 1532 1532 1531 1531 1531 1531 1531
1523 1522 1525 1526 1529 1530 1531 1531 1532 1532 1533 1535 1535 1535 1537 1540 1539 1540 1540 1540 1540 1540 1540 1539 1539 1539 1539 1538 1537 1536 1536 1536 1535 1535 1534 1534 1534 1533 1533 1533 1533 1533 1533 1533 1532 1532 1532 1532 1532
1524 1523 1527 1528 1529 1530 1531 1532 1534 1534 1535 1536 1537 1537 1539 1539 1540 1541 1541 1541 1541 1540 1541 1540 1540 1540 1540 1539 1538 1537 1537 1537 1536 1536 1535 1535 1536 1535 1535 1534 1533 1533 1533 1533 1533 1533 1533 1534 1534
1524 1524 1527 1527 1528 1529 1531 1532 1533 1534 1535 1536 1537 1538 1539 1540 1540 1541 1541 1541 1541 1541 1541 1541 1541 1541 1541 1540 1539 1539 1538 1538 1538 1537 1537 1537 1536 1536 1535 1534 1534 1534 1534 1534 1534 1534 1535 1535 1536
1524 1525 1527 1529 1530 1530 1531 1533 1534 1534 1535 1537 1538 1539 1539 1540 1540 1541 1541 1541 1542 1542 1542 1541 1541 1541 1541 1540 1540 1539 1539 1538 1538 1538 1537 1537 1537 1537 1536 1536 1536 1535 1535 1536 1535 1536 1536 1537 1537
1526 1528 1529 1530 1531 1532 1532 1534 1535 1536 1537 1538 1539 1539 1539 1540 1540 1541 1541 1542 1542 1542 1542 1542 1541 1541 1541 1540 1540 1540 1540 1539 1539 1539 1538 1538 1538 1537 1537 1537 1536 1536 1536 1536 1537 1537 1537 1538 1538
1526 1529 1531 1531 1532 1533 1533 1534 1536 1537 1538 1538 1539 1539 1539 1539 1540 1540 1541 1541 1542 1542 1542 1541 1541 1541 1541 1540 1540 1540 1540 1540 1540 1539 1539 1539 1539 1538 1538 1537 1537 1537 1537 1537 1538 1538 1538 1538 1539
1528 1529 1531 1532 1532 1533 1533 1535 1536 1537 1538 1538 1538 1538 1539 1539 1539 1540 1540 1541 1541 1541 1541 1541 1541 1541 1541 1541 1541 1540 1540 1540 1540 1539 1539 1539 1539 1539 1539 1538 1538 1538 1538 1538 1538 1539 1539 1539 1539
1529 1529 1530 1531 1532 1533 1533 1534 1535 1537 1538 1538 1538 1538 1538 1539 1539 1539 1540 1540 1541 1541 1541 1540 1540 1541 1541 1541 1541 1540 1540 1540 1540 1540 1540 1540 1539 1539 1539 1539 1539 1539 1539 1539 1539 1539 1539 1539 1540
1527 1527 1530 1530 1531 1532 1534 1535 1535 1536 1537 1537 1537 1537 1538 1538 1538 1539 1539 1539 1540 1540 1540 1540 1539 1540 1540 1540 1540 1540 1540 1540 1540 1540 1540 1540 1540 1540 1539 1539 1539 1539 1539 1539 1539 1540 1540 1540 1540
1526 1528 1529 1530 1530 1531 1531 1533 1534 1536 1536 1536 1536 1536 1537 1537 1538 1538 1538 1538 1538 1539 1539 1539 1539 1539 1539 1540 1540 1540 1540 1540 1540 1540 1540 1540 1540 1540 1539 1539 1539 1539 1539 1540 1540 1540 1540 1540 1540
1528 1527 1528 1529 1529 1530 1530 1531 1533 1535 1535 1535 1535 1535 1536 1536 1537 1537 1537 1537 1537 1537 1538 1538 1538 1538 1538 1539 1539 1539 1540 1540 1540 1540 1540 1540 1540 1540 1539 1539 1539 1539 1539 1540 1540 1540 1540 1540 1540
1525 1526 1528 1528 1529 1530 1530 1530 1530 1533 1534 1533 1533 1534 1535 1536 1536 1536 1535 1536 1536 1536 1536 1537 1538 1538 1538 1538 1539 1539 1539 1539 1540 1540 1540 1540 1540 1540 1539 1539 1539 1539 1539 1540 1540 1540 1540 1540 1541
1525 1527 1528 1528 1529 1530 1529 1529 1529 1531 1532 1533 1533 1533 1534 1535 1535 1535 1535 1535 1535 1535 1536 1536 1536 1537 1537 1537 1538 1538 1538 1539 1539 1539 1539 1539 1539 1539 1539 1539 1539 1539 1539 1539 1539 1539 1540 1540 1541
1524 1526 1526 1528 1529 1528 1529 1529 1527 1528 1531 1532 1533 1533 1533 1534 1534 1534 1534 1534 1534 1534 1535 1535 1535 1536 1536 1536 1537 1537 1537 1538 1538 1538 1538 1539 1539 1539 1539 1539 1539 1538 1539 1539 1539 1539 1539 1540 1540
1525 1523 1526 1528 1528 1527 1529 1531 1524 1524 1527 1529 1531 1532 1532 1533 1533 1534 1534 1533 1533 1533 1533 1534 1534 1535 1535 1535 1536 1536 1536 1537 1537 1538 1538 1538 1538 1538 1538 1538 1538 1538 1538 1538 1538 1538 1539 1539 1540
1523 1525 1526 1526 1525 1526 1525 1528 1522 1522 1524 1525 1528 1530 1532 1532 1533 1533 1533 1533 1533 1533 1532 1533 1533 1534 1534 1534 1535 1535 1536 1536 1536 1536 1537 1537 1537 1537 1537 1537 1537 1537 1537 1537 1537 1537 1538 1538 1539
1525 1526 1526 1525 1524 1530 1524 1526 1523 1519 1521 1523 1527 1529 1531 1531 1532 1532 1532 1533 1533 1532 1532 1532 1532 1532 1532 1533 1534 1534 1534 1535 1535 1535 1535 1535 1535 1535 1536 1536 1536 1536 1536 1536 1536 1536 1537 1537 1537
1523 1525 1530 1530 1530 1527 1523 1525 1521 1519 1522 1524 1527 1528 1530 1531 1531 1531 1531 1532 1532 1531 1531 1531 1531 1531 1531 1532 1532 1533 1533 1533 1534 1534 1533 1534 1534 1534 1534 1534 1535 1535 1535 1535 1535 1535 1535 1536 1536
1521 1521 1530 1535 1530 1524 1524 1523 1518 1521 1524 1526 1527 1528 1529 1530 1530 1531 1531 1531 1531 1531 1531 1530 1530 1530 1530 1531 1531 1532 1532 1532 1532 1532 1532 1532 1532 1532 1532 1532 1533 1533 1533 1533 1533 1533 1534 1534 1535
1521 1521 1520 1523 1524 1527 1519 1517 1517 1521 1523 1525 1526 1527 1528 1529 1529 1530 1530 1530 1530 1530 1530 1530 1530 1530 1529 1530 1530 1530 1530 1530 1530 1530 1530 1530 1530 1530 1530 1530 1530 1530 1531 1531 1531 1532 1532 1532 1533
1523 1521 1523 1525 1530 1529 1522 1518 1515 1518 1520 1523 1525 1526 1527 1528 1529 1529 1529 1529 1529 1530 1529 1529 1529 1529 1528 1528 1528 1528 1528 1528 1528 1528 1528 1528 1528 1528 1528 1528 1528 1528 1528 1529 1529 1530 1530 1531 1531
1525 1526 1523 1522 1523 1528 1526 1518 1512 1515 1518 1521 1524 1526 1527 1527 1528 1528 1528 1528 1528 1529 1528 1528 1528 1527 1527 1527 1526 1526 1526 1526 1526 1526 1526 1526 1526 1526 1525 1526 1526 1526 1526 1526 1527 1527 1528 1528 1529
1522 1522 1522 1527 1525 1524 1525 1520 1514 1517 1519 1521 1523 1525 1526 1527 1527 1527 1527 1527 1527 1527 1527 1526 1526 1526 1525 1525 1524 1524 1524 1524 1524 1524 1524 1523 1523 1523 1523 1523 1523 1523 1523 1524 1524 1525 1525 1526 1526